Sierra Vista, AZ

1:59 AM MST on April 29, 2017 (GMT -0700)
Sierra Vista Municipal-Libby Army Air Field

Weather History for KFHU - August, 2013

Change the Weather History Date:

Saturday, August 24, 2013

  Actual Average Record
Temperature  
Mean Temperature 70 °F -  
Max Temperature 77 °F 87 °F 99 °F (1985)
Min Temperature 63 °F 68 °F 57 °F (1984)
Cooling Degree Days 5    
Growing Degree Days 20 (Base 50)    
Moisture  
Dew Point 61 °F    
Average Humidity 77    
Maximum Humidity 94    
Minimum Humidity 52    
Precipitation  
Precipitation 0.29 in - - ()
Sea Level Pressure  
Sea Level Pressure 30.01 in    
Wind  
Wind Speed 7 mph (ESE)    
Max Wind Speed 18 mph    
Max Gust Speed 25 mph    
Visibility 9 miles    
Events Rain , Thunderstorm    
Averages and records for this station are not official NWS values.
T = Trace of Precipitation, MM = Missing Value Source: NWS Daily Summary

Daily Weather History Graph

Daily Weather History Graph

Search for Another Location

Airport or City:

Trip Planner

Search our weather history database for the weather conditions in past years. The results will help you decide how hot, cold, wet, or windy it might be!

Date:

Astronomy

Aug. 24, 2013 Rise Set
Actual Time 5:52 AM MST 6:54 PM MST
Civil Twilight 5:27 AM MST 7:19 PM MST
Nautical Twilight 4:57 AM MST 7:49 PM MST
Astronomical Twilight 4:26 AM MST 8:19 PM MST
Moon 9:11 PM MST (8/24) 9:36 AM MST (8/24)
Length of Visible Light 13h 52m
Length of Day
13h 01m
Waning Gibbous, 83% of the Moon is Illuminated
Aug 24
Waning Gibbous
Aug 28
Last Quarter
Sep 5
New
Sep 12
First Quarter
Sep 19
Full

Hourly Weather History & Observations

Time (MST) Temp. Dew Point Humidity Pressure Visibility Wind Dir Wind Speed Gust Speed Precip Events Conditions
12:32 AM 64.4 °F 62.6 °F 94% 30.14 in 4.0 mi NNW 5.8 mph - 0.12 in Rain , Thunderstorm Thunderstorms and Rain
12:51 AM 64.4 °F 62.6 °F 94% 30.14 in 5.0 mi West 4.6 mph - 0.17 in Rain Rain
12:56 AM 64.0 °F 61.0 °F 90% 29.96 in 5.0 mi West 5.8 mph - 0.18 in Rain Rain
1:56 AM 64.9 °F 62.1 °F 90% 29.93 in 5.0 mi Calm Calm - 0.03 in Rain Light Rain
2:03 AM 64.4 °F 62.6 °F 94% 30.12 in 8.0 mi NNE 4.6 mph - 0.00 in Rain Light Rain
2:30 AM 64.4 °F 62.6 °F 94% 30.14 in 7.0 mi NE 6.9 mph - 0.00 in Rain Light Rain
2:48 AM 64.4 °F 62.6 °F 94% 30.13 in 8.0 mi ENE 8.1 mph - 0.00 in   Overcast
2:56 AM 64.0 °F 62.1 °F 93% 29.95 in 7.0 mi NE 3.5 mph - 0.00 in   Overcast
3:06 AM 64.4 °F 62.6 °F 94% 30.14 in 8.0 mi ENE 4.6 mph - N/A   Overcast
3:36 AM 64.4 °F 62.6 °F 94% 30.12 in 3.0 mi East 5.8 mph - 0.04 in Rain Heavy Rain
3:49 AM 64.4 °F 62.6 °F 94% 30.11 in 5.0 mi East 6.9 mph - 0.06 in Rain Light Rain
3:56 AM 64.0 °F 62.1 °F 93% 29.92 in 7.0 mi ESE 4.6 mph - 0.07 in Rain Light Rain
4:56 AM 64.0 °F 62.1 °F 93% 29.94 in 10.0 mi South 3.5 mph - 0.01 in   Partly Cloudy
5:52 AM 64.4 °F 62.6 °F 94% 30.15 in 10.0 mi ESE 9.2 mph - N/A   Overcast
5:56 AM 64.0 °F 62.1 °F 93% 29.97 in 10.0 mi ESE 12.7 mph - N/A   Overcast
6:00 AM - - N/A% - - North - - N/A   Unknown
6:56 AM 63.0 °F 59.0 °F 87% 29.98 in 10.0 mi SE 18.4 mph 25.3 mph N/A   Overcast
7:56 AM 64.9 °F 57.9 °F 78% 29.95 in 10.0 mi East 9.2 mph - 0.00 in   Overcast
8:56 AM 68.0 °F 57.9 °F 70% 29.96 in 10.0 mi East 10.4 mph - N/A   Partly Cloudy
9:56 AM 73.0 °F 55.9 °F 55% 29.97 in 10.0 mi SSE 10.4 mph - N/A   Clear
10:56 AM 73.0 °F 59.0 °F 61% 29.99 in 10.0 mi SSE 11.5 mph - N/A   Mostly Cloudy
11:56 AM 73.9 °F 59.0 °F 59% 29.99 in 10.0 mi ESE 6.9 mph - N/A   Overcast
12:56 PM 73.9 °F 60.1 °F 62% 29.99 in 10.0 mi ESE 8.1 mph - N/A   Overcast
1:56 PM 75.0 °F 60.1 °F 60% 29.96 in 10.0 mi SE 6.9 mph - N/A   Overcast
2:56 PM 75.9 °F 60.1 °F 58% 29.94 in 10.0 mi SSE 8.1 mph - N/A   Overcast
3:56 PM 77.0 °F 57.9 °F 52% 29.92 in 10.0 mi East 8.1 mph - N/A   Overcast
4:56 PM 75.9 °F 60.1 °F 58% 29.91 in 10.0 mi SE 6.9 mph - N/A   Partly Cloudy
5:39 PM 75.2 °F 57.2 °F 53% 30.08 in 10.0 mi SE 9.2 mph - N/A Thunderstorm Thunderstorm
5:56 PM 75.0 °F 57.9 °F 55% 29.92 in 10.0 mi SSE 11.5 mph - N/A   Scattered Clouds
6:56 PM 75.0 °F 57.9 °F 55% 29.96 in 10.0 mi SSE 8.1 mph - N/A   Overcast
7:56 PM 73.0 °F 57.9 °F 59% 29.97 in 10.0 mi WSW 4.6 mph - N/A   Partly Cloudy
8:56 PM 72.0 °F 61.0 °F 68% 29.98 in 10.0 mi North 3.5 mph - N/A   Clear
9:56 PM 69.1 °F 62.1 °F 78% 29.98 in 10.0 mi WNW 5.8 mph - N/A   Clear
10:56 PM 68.0 °F 62.1 °F 81% 29.99 in 10.0 mi West 5.8 mph - N/A   Mostly Cloudy
11:56 PM 69.1 °F 62.1 °F 78% 29.99 in 10.0 mi SSW 4.6 mph - N/A   Clear